DateTime,F1_A11,F1_S11,BsB_S11,BsG_S11,BsR_S11,BbsB_S11,BbsG_S11,BbsR_S11,BaB_A11,BaG_A11,BaR_A11,T_S11,U_S11,P_S11,T1_A11
2016-04-12T00:00:00Z,0000380,20000600,,,,,,,,,,29.0,06.8,0676.6,34.9
2016-04-12T00:01:00Z,0000380,20000600,,,,,,,,,,29.0,06.9,0676.6,34.9
2016-04-12T00:02:00Z,0000380,20000600,,,,,,,,,,29.0,06.9,0676.6,34.9
2016-04-12T00:03:00Z,0000380,60000600,,,,,,,,,,29.1,06.9,0676.6,34.9
2016-04-12T00:04:00Z,0000380,40000600,-000.33,0000.60,-000.03,-000.19,0000.08,0000.03,-000.00,0000.01,-000.28,29.1,06.9,0677.4,34.9
2016-04-12T00:05:00Z,0000380,00000600,-000.34,-000.05,0000.45,-000.17,0000.27,0000.14,-000.07,-000.02,0000.18,29.1,07.0,0677.3,34.9
2016-04-12T00:06:00Z,0000380,00000600,0000.09,0000.52,0000.55,-000.61,0000.06,0000.17,0000.14,0000.11,0000.02,29.2,06.9,0677.3,34.9
2016-04-12T00:07:00Z,0000380,00000600,0001.82,0000.33,-000.07,0000.46,-000.02,-000.39,-000.04,0000.03,0000.01,29.1,06.9,0677.3,34.9
2016-04-12T00:08:00Z,0000380,00000600,0001.72,0000.25,0000.29,-000.14,0000.45,0000.13,-000.05,0000.13,-000.06,29.2,06.9,0677.4,34.9
2016-04-12T00:09:00Z,0000380,00000600,0000.32,0000.51,-000.13,-000.68,-000.20,0000.06,0000.19,-000.26,-000.07,29.1,06.9,0677.4,34.9
2016-04-12T00:10:00Z,0000380,00000600,0001.85,0000.31,0000.37,-000.52,-000.08,0000.00,-000.08,0000.15,0000.37,29.2,06.9,0677.5,34.9
2016-04-12T00:11:00Z,0000380,00000600,0000.85,0000.05,0000.30,0000.31,-000.25,0000.06,0000.04,-000.00,-000.12,29.2,06.8,0677.4,34.9
2016-04-12T00:12:00Z,0000380,00000600,0001.09,0000.85,0000.08,0000.11,0000.25,-000.50,0000.01,0000.06,0000.02,29.1,06.9,0677.5,34.9
2016-04-12T00:13:00Z,0000380,00000600,0000.57,0000.03,0000.22,-000.02,0000.17,-000.41,-000.07,0000.00,-000.23,29.1,06.9,0677.4,34.9
2016-04-12T00:14:00Z,0000380,00000600,0000.27,-000.05,-000.02,-000.69,0000.09,0000.14,0000.20,-000.02,0000.40,29.2,06.9,0677.4,34.9
2016-04-12T00:15:00Z,0000380,00000600,0000.78,-000.08,0000.15,0000.76,0000.13,0000.60,-000.08,0000.08,-000.34,29.1,06.9,0677.5,34.9
2016-04-12T00:16:00Z,0000380,00000600,0001.10,0000.90,0000.34,-000.49,0000.17,0000.20,0000.01,-000.06,0000.02,29.2,06.9,0677.5,34.9
2016-04-12T00:17:00Z,0000380,00000600,0000.83,-000.13,0000.43,-000.06,-000.03,0000.14,0000.03,0000.05,0000.18,29.1,06.9,0677.5,34.9
2016-04-12T00:18:00Z,0000380,00000600,-000.13,0000.00,0000.15,-000.72,-000.02,-000.16,0000.18,0000.17,0000.17,29.2,06.9,0677.6,34.9
2016-04-12T00:19:00Z,0000380,00000600,-000.79,0000.75,0000.54,-000.69,-000.33,-000.03,-000.17,-000.11,-000.25,29.2,06.9,0677.6,34.9
2016-04-12T00:20:00Z,0000380,00000600,0000.42,0000.08,0000.38,0000.58,0000.09,0000.13,0000.09,0000.09,-000.13,29.2,06.9,0677.6,34.9
2016-04-12T00:21:00Z,0000380,00000600,0000.70,0000.72,0000.12,0000.16,0000.00,-000.06,0000.01,-000.03,0000.38,29.2,06.8,0677.6,34.9
2016-04-12T00:22:00Z,0000380,00000600,-000.44,0000.52,-000.35,-000.14,0000.30,0000.06,-000.18,-000.10,-000.23,29.2,06.8,0677.6,34.9
2016-04-12T00:23:00Z,0000380,00000600,0000.77,0000.95,0000.26,0000.20,-000.53,0000.36,0000.19,0000.10,-000.06,29.2,06.9,0677.7,34.9
2016-04-12T00:24:00Z,0000380,00000600,0000.42,0000.30,0000.17,-000.14,-000.11,0000.02,0000.08,-000.03,-000.05,29.2,06.9,0677.6,34.9
2016-04-12T00:25:00Z,0000380,00000600,0000.43,0000.83,0000.61,-000.58,-000.22,-000.03,-000.04,0000.07,0000.31,29.2,06.8,0677.6,34.9
2016-04-12T00:26:00Z,0000380,00000600,-000.21,0000.67,0000.00,-000.22,0000.02,-000.09,0000.00,-000.10,0000.07,29.2,06.8,0677.6,34.9
2016-04-12T00:27:00Z,0000380,00000600,0000.46,0000.72,0000.28,0000.66,0000.20,-000.32,-000.01,0000.20,0000.07,29.2,06.8,0677.5,34.9
2016-04-12T00:28:00Z,0000380,00000600,0001.71,0000.20,-000.03,-000.38,-000.31,-000.35,-000.06,-000.13,-000.29,29.2,07.0,0677.5,34.9
2016-04-12T00:29:00Z,0000380,00000600,0000.16,0000.49,-000.12,-000.17,-000.55,0000.02,0000.11,-000.07,0000.14,29.2,06.9,0677.7,34.9
2016-04-12T00:30:00Z,0000380,00000600,0000.51,0000.22,0000.22,-000.25,-000.19,-000.03,0000.06,0000.19,-000.16,29.2,06.8,0677.7,34.9
2016-04-12T00:31:00Z,0000380,00000600,0001.24,-000.30,-000.06,-000.14,-000.17,0000.63,0000.01,-000.01,0000.25,29.2,06.8,0677.6,34.9
2016-04-12T00:32:00Z,0000380,00000600,0000.37,0000.33,0000.11,-000.66,0000.05,-000.22,0000.09,0000.07,-000.10,29.2,06.9,0677.6,34.9
2016-04-12T00:33:00Z,0000380,00000600,0000.57,0000.17,0000.00,-000.71,0000.38,-000.47,-000.12,-000.14,0000.20,29.2,06.9,0677.7,34.9
2016-04-12T00:34:00Z,0000380,00000600,0000.68,0000.05,0000.21,-000.24,0000.58,0000.49,0000.10,0000.14,-000.05,29.2,06.9,0677.8,34.9
2016-04-12T00:35:00Z,0000380,00000600,0000.32,0000.14,0000.83,-000.35,0000.25,-000.08,-000.05,0000.02,-000.12,29.2,06.9,0677.7,34.9
2016-04-12T00:36:00Z,0000380,00000600,0000.50,-000.19,0000.00,-000.49,-000.28,-000.33,0000.10,0000.00,-000.04,29.2,06.9,0677.7,34.9
2016-04-12T00:37:00Z,0000380,00000600,0000.99,-000.23,0000.74,-000.14,-000.09,0000.25,-000.00,0000.03,0000.17,29.2,06.9,0677.5,34.9
2016-04-12T00:38:00Z,0000380,00000600,0000.35,0000.23,0000.27,-000.05,0000.17,-000.41,-000.05,-000.01,0000.06,29.2,06.9,0677.6,34.9
2016-04-12T00:39:00Z,0000380,00000600,0001.32,-000.27,0000.12,0000.13,0000.17,0000.14,-000.05,-000.03,0000.03,29.2,07.0,0677.7,34.9
2016-04-12T00:40:00Z,0000380,00000600,-000.04,0000.22,-000.39,-000.68,-000.06,-000.25,0000.12,0000.06,0000.01,29.2,07.0,0677.7,34.9
2016-04-12T00:41:00Z,0000380,00000600,0000.68,0000.33,0000.07,-001.12,-000.30,0000.33,-000.03,0000.08,0000.01,29.2,07.0,0677.6,34.9
2016-04-12T00:42:00Z,0000380,00000600,0000.18,0001.10,0000.04,-000.31,0000.02,0000.19,0000.03,-000.11,-000.03,29.2,07.0,0677.6,34.9
2016-04-12T00:43:00Z,0000380,00000600,0000.55,0000.67,-000.22,-000.17,-000.24,0000.09,0000.07,-000.05,-000.08,29.2,07.0,0677.6,34.9
2016-04-12T00:44:00Z,0000380,00000600,-000.16,0000.47,0000.27,0000.38,0000.20,-000.13,-000.06,-000.02,0000.11,29.2,07.1,0677.5,34.9
2016-04-12T00:45:00Z,0000380,00000600,0000.53,0000.27,0000.06,-000.31,0000.13,-000.16,-000.14,0000.03,-000.25,29.2,07.1,0677.7,34.9
2016-04-12T00:46:00Z,0000380,00000600,-000.06,0000.06,-000.44,-000.14,-000.28,-000.49,0000.14,-000.01,0000.24,29.2,07.1,0677.6,34.9
2016-04-12T00:47:00Z,0000380,00000600,-000.27,0000.26,-000.82,-000.61,0000.22,0000.03,-000.16,0000.06,0000.02,29.2,07.2,0677.8,34.9
2016-04-12T00:48:00Z,0000380,00000600,0001.00,0000.16,0000.05,0000.02,-000.14,0000.14,0000.04,-000.05,-000.24,29.2,07.1,0677.5,34.9
2016-04-12T00:49:00Z,0000380,00000600,0000.07,0000.23,0000.71,0000.88,-000.08,0000.19,0000.03,0000.13,0000.16,29.2,07.2,0677.5,34.9
2016-04-12T00:50:00Z,0000380,00000600,0000.09,-000.15,-000.36,-000.08,-000.30,-000.35,0000.06,-000.13,0000.13,29.2,07.2,0677.4,34.9
2016-04-12T00:51:00Z,0000380,00000600,0000.91,0000.43,-000.10,-000.25,-000.03,-000.06,0000.02,0000.06,0000.17,29.2,07.3,0677.6,34.9
2016-04-12T00:52:00Z,0000380,00000600,0000.81,0000.99,0000.04,-000.13,-000.11,-000.57,0000.06,0000.16,-000.14,29.2,07.2,0677.6,34.9
2016-04-12T00:53:00Z,0000380,00000600,0000.63,0000.02,0000.34,0000.17,0000.09,-000.17,0000.01,-000.04,-000.17,29.2,07.3,0677.5,34.9
2016-04-12T00:54:00Z,0000380,00000600,0000.57,-000.19,0000.10,-000.06,0000.09,0000.16,-000.08,-000.01,-000.06,29.2,07.3,0677.4,34.9
2016-04-12T00:55:00Z,0000380,00000600,0000.36,0000.18,-000.12,0000.00,-000.06,-000.68,-000.13,-000.15,0000.22,29.3,07.3,0677.6,34.9
2016-04-12T00:56:00Z,0000380,00000600,0000.11,-000.29,0000.24,0000.14,0000.30,0000.36,0000.15,0000.09,-000.05,29.2,07.4,0677.6,34.9
2016-04-12T00:57:00Z,0000380,40000600,,,,,,,,,,,,0677.3,34.9
2016-04-12T00:58:00Z,0000380,60000600,,,,,,,,,,29.2,07.2,0677.0,34.9
2016-04-12T00:59:00Z,0000380,20000600,,,,,,,,,,29.2,07.2,0676.9,34.9
2016-04-12T01:00:00Z,0000380,20000600,,,,,,,,,,29.2,07.2,0677.0,34.9
2016-04-12T01:01:00Z,0000380,20000600,,,,,,,,,,29.2,07.2,0677.0,34.9
2016-04-12T01:02:00Z,0000380,20000600,,,,,,,,,,29.2,07.2,0677.0,34.9
2016-04-12T01:03:00Z,0000380,60000600,,,,,,,,,,29.2,07.2,0677.0,34.9
2016-04-12T01:04:00Z,0000380,40000600,-001.20,-000.05,0000.57,0000.03,0000.34,0000.32,0000.12,0000.00,0000.18,29.3,07.3,0677.7,34.9
2016-04-12T01:05:00Z,0000380,00000600,0000.60,0000.35,-000.05,-000.24,-000.31,0000.00,-000.02,0000.05,-000.10,29.3,07.3,0677.9,34.9
2016-04-12T01:06:00Z,0000380,00000600,0000.17,0000.28,0000.42,0000.57,-000.06,-000.02,0000.04,-000.08,-000.20,29.3,07.3,0677.8,34.9
2016-04-12T01:07:00Z,0000380,00000600,0000.43,0000.24,-000.33,0000.39,-000.38,-000.13,-000.07,0000.21,0000.18,29.3,07.3,0677.8,34.9
2016-04-12T01:08:00Z,0000380,00000600,0000.39,-000.31,0000.55,0000.33,-000.24,0000.06,-000.11,-000.16,0000.10,29.3,07.2,0677.8,34.9
2016-04-12T01:09:00Z,0000380,00000600,0000.41,0000.06,0000.45,0000.25,-000.22,0000.24,0000.06,0000.10,-000.18,29.3,07.3,0677.8,34.9
2016-04-12T01:10:00Z,0000380,00000600,0000.54,0000.70,0000.17,0000.61,-000.42,0000.14,-000.05,-000.13,0000.20,29.3,07.3,0677.7,34.9
2016-04-12T01:11:00Z,0000380,00000600,-000.19,0000.33,0000.58,-000.25,-000.47,0000.55,-000.04,-000.03,-000.07,29.3,07.3,0677.7,34.9
2016-04-12T01:12:00Z,0000380,00000600,0000.36,-000.38,0000.40,0000.55,0000.30,0000.46,0000.12,0000.06,-000.04,29.3,07.3,0677.6,34.9
2016-04-12T01:13:00Z,0000380,00000600,0000.13,0000.29,0000.40,0000.19,0000.00,-000.03,-000.11,-000.01,0000.12,29.3,07.4,0677.7,34.9
2016-04-12T01:14:00Z,0000380,00000600,0000.24,-000.47,0000.55,-000.68,-000.05,0000.03,0000.11,0000.05,-000.14,29.3,07.3,0677.8,34.9
2016-04-12T01:15:00Z,0000380,00000600,0000.30,0000.75,0000.45,0000.93,0000.17,0000.24,0000.03,-000.01,0000.19,29.3,07.3,0677.7,34.9
2016-04-12T01:16:00Z,0000380,00000600,0000.69,0000.26,0000.08,0000.44,-000.24,0000.06,-000.09,0000.08,0000.03,29.3,07.3,0677.6,34.9
2016-04-12T01:17:00Z,0000380,00000600,0000.56,-000.14,0000.02,0000.30,0000.17,-000.03,-000.03,0000.03,-000.05,29.3,07.4,0677.8,34.9
2016-04-12T01:18:00Z,0000380,00000600,0000.41,0000.22,0000.53,0000.25,-000.55,0000.52,0000.14,-000.07,0000.01,29.3,07.3,0677.7,34.9
2016-04-12T01:19:00Z,0000380,00000600,0000.47,-000.02,0000.50,0000.49,-000.28,0000.52,-000.10,0000.02,-000.14,29.3,07.5,0677.7,34.9
2016-04-12T01:20:00Z,0000380,00000600,0000.03,-000.18,-000.10,-000.58,0000.06,-000.22,0000.11,0000.05,-000.00,29.3,07.3,0677.6,34.9
2016-04-12T01:21:00Z,0000380,00000600,0000.30,0000.09,0000.14,0000.25,0000.09,0000.00,-000.07,-000.02,0000.05,29.3,07.4,0677.6,34.9
2016-04-12T01:22:00Z,0000380,00000600,0000.16,0000.51,-000.04,0000.36,0000.03,0000.17,0000.09,0000.13,0000.13,29.3,07.4,0677.7,34.9
2016-04-12T01:23:00Z,0000380,00000600,0000.92,0000.50,0000.03,-000.33,-000.27,-000.16,0000.00,-000.16,0000.18,29.3,07.4,0677.7,34.9
2016-04-12T01:24:00Z,0000380,00000600,0000.75,-000.46,0000.33,-000.25,-000.05,0000.06,0000.04,0000.02,-000.19,29.3,07.4,0677.6,34.9
2016-04-12T01:25:00Z,0000380,00000600,0000.28,0000.45,0000.48,0000.71,0000.16,0000.35,0000.01,0000.08,0000.11,29.3,07.4,0677.7,34.9
2016-04-12T01:26:00Z,0000380,00000600,0000.39,0000.39,0000.34,0000.39,-000.11,-000.08,-000.05,0000.09,0000.17,29.3,07.4,0677.6,34.9
2016-04-12T01:27:00Z,0000380,00000600,0000.73,-000.11,0000.84,0000.58,0000.14,0000.39,0000.02,0000.04,-000.41,29.3,07.4,0677.7,34.9
2016-04-12T01:28:00Z,0000380,00000600,0000.02,0000.59,0000.76,0000.38,-000.13,0000.05,-000.02,-000.18,-000.01,29.3,07.4,0677.7,34.9
2016-04-12T01:29:00Z,0000380,00000600,0000.07,0000.36,0000.17,0000.57,-000.11,0000.19,0000.17,0000.06,0000.12,29.3,07.3,0677.6,34.9
2016-04-12T01:30:00Z,0000380,00000600,0000.82,-000.37,-000.10,0000.25,-000.02,0000.13,0000.03,0000.18,0000.09,29.4,07.4,0677.5,34.9
2016-04-12T01:31:00Z,0000380,00000600,-000.05,0000.60,0000.71,0000.05,-000.11,0000.30,-000.07,-000.13,-000.13,29.4,07.3,0677.7,34.9
2016-04-12T01:32:00Z,0000380,00000600,0000.34,0000.79,0000.70,0000.44,-000.44,0000.03,0000.03,0000.05,-000.04,29.4,07.3,0677.5,34.9
2016-04-12T01:33:00Z,0000380,00000600,0000.43,0000.12,0000.80,0000.14,0000.00,0000.55,0000.19,0000.03,0000.18,29.4,07.3,0677.8,34.9
2016-04-12T01:34:00Z,0000380,00000600,0000.24,0000.69,0000.48,0000.46,-000.20,0000.13,-000.12,-000.01,0000.19,29.4,07.2,0677.8,34.9
2016-04-12T01:35:00Z,0000380,00000600,-001.25,-000.04,0000.52,0000.03,0000.11,-000.03,0000.24,0000.10,-000.05,29.4,07.2,0677.8,34.9
2016-04-12T01:36:00Z,0000380,00000600,-000.18,0000.07,0000.77,0000.27,-000.09,0000.33,-000.13,0000.03,-000.10,29.4,07.2,0677.7,34.9
2016-04-12T01:37:00Z,0000380,00000600,-000.59,0000.54,0000.52,0000.41,0000.02,-000.19,0000.01,-000.06,0000.02,29.4,07.1,0677.6,34.9
2016-04-12T01:38:00Z,0000380,00000600,0000.50,0000.09,0001.25,-000.02,0000.39,0000.50,0000.07,0000.19,0000.01,29.4,07.2,0677.6,34.9
2016-04-12T01:39:00Z,0000380,00000600,0000.54,0000.65,0001.01,-000.11,0000.11,-000.06,0000.24,-000.00,0000.03,29.5,07.1,0677.7,34.9
2016-04-12T01:40:00Z,0000380,00000600,0001.22,0000.60,0000.60,0000.39,0000.17,0000.13,-000.12,0000.01,-000.14,29.5,07.0,0677.6,34.9
2016-04-12T01:41:00Z,0000380,00000600,0000.51,0000.16,0000.67,0000.58,0000.19,0000.47,0000.06,0000.04,0000.02,29.5,07.1,0677.5,34.9
2016-04-12T01:42:00Z,0000380,00000600,0000.70,0000.13,0000.39,0000.38,-000.28,-000.22,-000.14,0000.02,0000.12,29.5,07.2,0677.7,34.9
2016-04-12T01:43:00Z,0000380,00000600,0000.78,-000.15,0000.57,0000.88,-000.17,0000.24,0000.20,0000.04,0000.16,29.5,07.1,0677.8,34.9
2016-04-12T01:44:00Z,0000380,00000600,-000.78,0000.74,0000.40,0000.32,-000.05,0000.11,0000.10,0000.01,-000.15,29.5,07.0,0677.6,34.9
2016-04-12T01:45:00Z,0000380,00000600,0001.37,0000.68,0000.65,0000.52,0000.14,0000.21,-000.03,0000.01,0000.26,29.5,07.1,0677.6,34.9
2016-04-12T01:46:00Z,0000380,00000600,0001.30,0000.46,0000.66,0000.28,-000.39,0000.24,-000.07,0000.09,0000.15,29.5,07.1,0677.5,34.9
2016-04-12T01:47:00Z,0000380,00000600,0000.79,0000.35,0000.38,0000.00,-000.31,0000.11,0000.12,0000.09,0000.05,29.5,07.1,0677.4,34.9
2016-04-12T01:48:00Z,0000380,00000600,0000.55,0000.18,0000.31,0000.38,0000.09,-000.13,0000.10,0000.08,-000.30,29.5,07.1,0677.6,34.9
2016-04-12T01:49:00Z,0000380,00000600,0000.59,0000.27,0000.42,0000.90,0000.16,0000.06,-000.07,-000.04,0000.06,29.5,07.0,0677.6,34.9
2016-04-12T01:50:00Z,0000380,00000600,0000.71,0000.58,0000.35,0000.28,0000.05,0000.44,0000.01,-000.04,0000.08,29.5,07.0,0677.7,34.9
2016-04-12T01:51:00Z,0000380,00000600,0000.67,-000.43,0001.46,0000.14,-000.28,0000.19,0000.09,0000.08,0000.08,29.5,07.0,0677.6,34.9
2016-04-12T01:52:00Z,0000380,00000600,0000.97,0000.79,0000.35,0000.33,-000.30,0000.25,0000.06,0000.03,-000.04,29.5,07.0,0677.7,34.9
2016-04-12T01:53:00Z,0000380,00000600,0000.88,0001.13,0000.23,0000.44,0000.06,0000.30,-000.06,0000.03,-000.02,29.6,06.9,0677.2,34.9
2016-04-12T01:54:00Z,0000380,00000600,0001.27,0000.42,0000.32,0000.82,-000.11,0000.38,0000.08,0000.03,0000.01,29.5,06.9,0677.6,34.9
2016-04-12T01:55:00Z,0000380,00000600,0000.80,0000.27,0000.54,0000.44,0000.14,0000.06,0000.07,0000.03,-000.02,29.6,06.8,0677.6,34.9
2016-04-12T01:56:00Z,0000380,00000600,0000.51,0000.29,0000.37,0000.98,0000.41,-000.05,-000.10,-000.09,0000.22,29.6,06.8,0677.8,34.9
2016-04-12T01:57:00Z,0000380,40000600,,,,,,,,,,,,0677.9,34.9
2016-04-12T01:58:00Z,0000380,60000600,,,,,,,,,,29.5,06.9,0677.0,34.9
2016-04-12T01:59:00Z,0000380,20000600,,,,,,,,,,29.5,06.9,0676.9,34.9
2016-04-12T02:00:00Z,0000380,20000600,,,,,,,,,,29.5,06.9,0676.9,35.0
2016-04-12T02:01:00Z,0000380,20000600,,,,,,,,,,29.5,06.9,0676.9,35.0
2016-04-12T02:02:00Z,0000380,20000600,,,,,,,,,,29.5,06.7,0677.0,35.0
2016-04-12T02:03:00Z,0000380,60000600,,,,,,,,,,29.6,06.7,0676.9,35.0
2016-04-12T02:04:00Z,0000380,40000600,0001.05,0001.27,0000.50,0000.27,0000.39,-000.19,0000.08,0000.20,-000.02,29.7,06.9,0677.7,35.0
2016-04-12T02:05:00Z,0000380,00000600,-000.36,0000.30,0000.13,0000.06,-000.02,0000.09,0000.12,-000.06,0000.15,29.7,06.9,0677.6,35.0
2016-04-12T02:06:00Z,0000380,00000600,0000.65,0000.36,0000.76,0000.30,-000.11,0000.30,0000.03,0000.03,-000.05,29.7,06.9,0677.7,35.0
2016-04-12T02:07:00Z,0000380,00000600,0000.39,0001.21,0000.25,0000.25,-000.13,0000.13,-000.08,0000.14,0000.23,29.8,06.9,0677.6,35.0
2016-04-12T02:08:00Z,0000380,00000600,0000.72,0000.49,0000.54,0000.06,0000.08,-000.47,0000.16,-000.03,0000.04,29.7,07.0,0677.7,35.0
2016-04-12T02:09:00Z,0000380,00000600,0000.72,0000.48,-000.21,0000.61,0000.47,-000.14,0000.04,0000.05,-000.24,29.8,06.9,0677.8,35.0
2016-04-12T02:10:00Z,0000380,00000600,0000.33,0000.11,0000.91,-000.02,0000.09,-000.06,-000.02,-000.04,0000.32,29.8,06.9,0677.8,35.0
2016-04-12T02:11:00Z,0000380,00000600,0001.25,0000.31,0000.20,0000.11,0000.50,0000.11,0000.07,0000.13,-000.43,29.8,06.9,0677.7,35.0
2016-04-12T02:12:00Z,0000380,00000600,0000.34,0000.69,0000.21,0000.46,0000.33,-000.30,0000.20,-000.08,0000.52,29.8,06.9,0677.9,35.0
2016-04-12T02:13:00Z,0000380,00000600,0000.47,0000.32,0000.16,0000.80,0000.31,0000.25,0000.01,0000.03,-000.22,29.8,06.8,0678.0,35.0
2016-04-12T02:14:00Z,0000380,00000600,0000.79,0000.02,0000.23,0000.66,0000.13,0000.00,0000.08,0000.04,0000.11,29.8,06.8,0678.0,35.0
2016-04-12T02:15:00Z,0000380,00000600,0001.23,0000.31,0000.44,0000.44,0000.25,0000.17,0000.08,0000.08,-000.04,29.8,06.8,0678.1,35.0
2016-04-12T02:16:00Z,0000380,00000600,0000.43,0000.39,0000.50,0000.11,0000.17,0000.06,0000.03,0000.19,0000.03,29.8,06.8,0677.9,35.0
2016-04-12T02:17:00Z,0000380,00000600,0001.23,0000.84,0000.23,-000.24,0000.53,-000.21,0000.05,-000.08,0000.36,29.8,06.8,0678.0,35.0
2016-04-12T02:18:00Z,0000380,00000600,0000.19,0001.06,0000.39,0001.10,0000.13,-000.19,0000.02,0000.08,-000.14,29.8,06.7,0678.0,35.0
2016-04-12T02:19:00Z,0000380,00000600,0000.56,0000.00,0000.38,0000.99,0000.28,-000.25,-000.10,0000.13,0000.03,29.8,06.8,0678.1,35.0
2016-04-12T02:20:00Z,0000380,00000600,0001.69,0000.84,0000.44,0000.03,0000.24,0000.47,0000.27,0000.04,-000.01,29.8,06.8,0678.0,35.0
2016-04-12T02:21:00Z,0000380,00000600,0000.69,0000.61,0000.10,-000.09,0000.14,-000.39,-000.10,-000.04,-000.04,29.9,06.7,0677.9,35.0
2016-04-12T02:22:00Z,0000380,00000600,0000.33,0000.10,-000.13,0000.41,0000.13,0000.28,0000.08,0000.21,0000.12,29.9,06.7,0678.1,35.0
2016-04-12T02:23:00Z,0000380,00000600,0000.57,0000.28,0000.11,-000.25,0000.30,-000.03,0000.15,-000.00,-000.02,29.9,06.8,0678.3,35.0
2016-04-12T02:24:00Z,0000380,00000600,0001.22,0000.85,0000.38,-000.06,0000.27,-000.08,-000.07,-000.15,0000.03,30.0,06.6,0678.3,35.0
2016-04-12T02:25:00Z,0000380,00000600,0000.36,0000.34,0000.45,0000.13,0000.33,-000.24,0000.20,0000.17,0000.30,30.0,06.7,0678.2,35.0
2016-04-12T02:26:00Z,0000380,00000600,0000.99,0000.12,0000.48,0000.28,0000.47,-000.09,-000.02,-000.03,0000.01,30.0,06.7,0678.0,35.0
2016-04-12T02:27:00Z,0000380,00000600,0000.65,-000.29,0000.08,0000.71,-000.31,-000.47,0000.17,0000.23,0000.15,30.0,06.6,0678.1,35.0
2016-04-12T02:28:00Z,0000380,00000600,0000.36,-000.58,0000.07,0000.24,0000.64,0000.27,0000.14,0000.05,-000.05,30.0,06.7,0677.8,35.0
2016-04-12T02:29:00Z,0000380,00000600,0000.01,0000.10,0000.48,0000.82,-000.27,-000.08,-000.15,0000.10,0000.05,30.0,06.6,0677.9,35.0
2016-04-12T02:30:00Z,0000380,00000600,0000.89,0000.82,0000.20,-000.17,0000.41,0000.08,0000.29,-000.04,0000.13,30.0,06.7,0677.9,35.0
2016-04-12T02:31:00Z,0000380,00000600,0000.93,0000.45,-000.10,0000.50,0000.41,-000.22,-000.03,-000.01,-000.34,30.0,06.6,0678.2,35.0
2016-04-12T02:32:00Z,0000380,00000600,0001.44,0000.29,-000.14,0001.21,0000.49,-000.16,0000.10,0000.25,0000.17,30.0,06.6,0678.2,35.0
2016-04-12T02:33:00Z,0000380,00000600,0001.16,0000.75,0000.60,0000.08,0000.57,0000.11,0000.02,0000.05,0000.25,30.0,06.6,0678.4,35.0
2016-04-12T02:34:00Z,0000380,00000600,0000.37,0000.27,0000.44,0000.50,0000.02,0000.17,0000.17,-000.05,-000.04,30.0,06.6,0678.1,35.0
2016-04-12T02:35:00Z,0000380,00000600,0001.41,0001.08,0000.44,0000.55,0000.35,0000.19,0000.05,0000.15,-000.09,30.0,06.6,0677.9,35.0
2016-04-12T02:36:00Z,0000380,00000600,0000.98,0000.17,0000.28,0000.33,0000.28,-000.03,0000.02,0000.07,0000.16,30.0,06.5,0678.0,35.0
2016-04-12T02:37:00Z,0000380,00000600,0001.31,0000.81,0000.32,0000.57,0000.00,0000.21,0000.15,0000.06,0000.09,30.0,06.5,0678.2,35.0
2016-04-12T02:38:00Z,0000380,00000600,0000.09,0000.59,-000.02,-000.09,-000.13,0000.27,0000.03,0000.01,-000.18,30.0,06.5,0678.4,35.0
2016-04-12T02:39:00Z,0000380,00000600,0000.71,0000.16,0000.70,0000.82,0000.38,0000.13,0000.04,0000.18,0000.25,30.0,06.4,0678.0,35.0
2016-04-12T02:40:00Z,0000380,00000600,0001.13,0001.03,0000.51,0000.57,0000.08,0000.30,0000.24,0000.03,0000.18,30.1,06.4,0677.8,35.0
2016-04-12T02:41:00Z,0000380,00000600,0000.66,0000.43,0000.35,0000.38,0000.28,-000.11,0000.17,0000.08,-000.13,30.1,06.4,0678.1,35.0
2016-04-12T02:42:00Z,0000380,00000600,0001.33,0000.94,0000.56,-000.39,0000.46,0000.51,0000.09,0000.17,-000.08,30.1,06.3,0678.1,35.0
2016-04-12T02:43:00Z,0000380,00000600,0000.36,0000.93,0000.62,0000.21,-000.08,-000.30,0000.11,0000.04,0000.47,30.1,06.3,0677.8,35.0
2016-04-12T02:44:00Z,0000380,00000600,0001.86,0000.98,0000.47,0000.43,0000.68,-000.14,0000.12,0000.26,0000.03,30.1,06.3,0677.8,35.0
2016-04-12T02:45:00Z,0000380,00000600,0001.45,0000.66,0000.19,-000.02,-000.08,0000.40,0000.09,-000.02,0000.04,30.2,06.2,0677.9,35.0
2016-04-12T02:46:00Z,0000380,00000600,0001.91,0000.95,0000.66,0000.16,0000.00,-000.06,-000.02,-000.07,-000.19,30.2,06.3,0677.8,35.0
2016-04-12T02:47:00Z,0000380,00000600,0000.93,0000.66,0000.73,-000.17,0000.08,-000.11,0000.19,0000.23,0000.30,30.2,06.1,0677.7,35.0
2016-04-12T02:48:00Z,0000380,00000600,0000.50,0001.02,0000.77,0000.92,0000.25,-000.13,-000.07,0000.12,-000.15,30.2,06.1,0677.8,35.0
2016-04-12T02:49:00Z,0000380,00000600,0000.88,0000.85,0000.37,0000.62,0000.06,-000.13,0000.17,0000.07,0000.39,30.2,06.2,0677.9,35.0
2016-04-12T02:50:00Z,0000380,00000600,0000.92,0000.53,0000.76,0000.32,0000.20,0000.35,0000.25,0000.11,-000.01,30.2,06.1,0677.9,35.0
2016-04-12T02:51:00Z,0000380,00000600,0002.09,0000.99,0000.81,0000.41,0000.22,-000.13,0000.14,0000.14,-000.04,30.2,06.0,0677.7,35.0
2016-04-12T02:52:00Z,0000380,00000600,0001.37,0000.83,0000.71,0000.51,0000.13,0000.62,0000.16,0000.13,-000.03,30.3,06.0,0678.0,35.0
2016-04-12T02:53:00Z,0000380,00000600,0001.37,0000.62,0000.47,0000.43,0000.25,0000.22,0000.08,-000.15,0000.18,30.2,05.9,0678.0,35.0
2016-04-12T02:54:00Z,0000380,00000600,0002.65,0000.95,0000.07,0000.82,0000.27,-000.06,0000.00,0000.15,0000.03,30.3,06.0,0678.1,35.0
2016-04-12T02:55:00Z,0000380,00000600,0000.49,0000.44,0000.73,-000.17,-000.05,0000.41,-000.03,0000.25,0000.19,30.3,05.9,0678.1,35.0
2016-04-12T02:56:00Z,0000380,00000600,0001.77,0001.27,0000.95,0000.46,-000.08,0000.30,0000.31,-000.06,-000.12,30.3,05.8,0678.1,35.0
2016-04-12T02:57:00Z,0000380,40000600,,,,,,,,,,,,0678.1,35.0
2016-04-12T02:58:00Z,0000380,60000600,,,,,,,,,,30.2,06.0,0677.3,35.0
2016-04-12T02:59:00Z,0000380,20000600,,,,,,,,,,30.2,06.0,0677.2,35.0
2016-04-12T03:00:00Z,0000380,20000600,,,,,,,,,,30.2,06.0,0677.2,35.0
2016-04-12T03:01:00Z,0000380,20000600,,,,,,,,,,30.2,05.8,0677.3,35.0
2016-04-12T03:02:00Z,0000380,20000600,,,,,,,,,,30.3,05.8,0677.2,35.0
2016-04-12T03:03:00Z,0000380,60000600,,,,,,,,,,30.3,05.8,0677.2,35.0
2016-04-12T03:04:00Z,0000380,40000600,0002.45,0001.47,0000.32,-000.22,0000.11,-000.19,0000.32,0000.19,0000.37,30.4,05.8,0678.2,35.0
2016-04-12T03:05:00Z,0000380,00000600,0002.43,0000.74,0000.09,0000.62,0000.17,-000.19,-000.06,0000.15,-000.05,30.4,05.7,0678.3,35.0
2016-04-12T03:06:00Z,0000380,00000600,0001.06,0001.31,0000.03,0000.79,0000.24,-000.02,0000.27,0000.06,0000.19,30.4,05.8,0678.4,35.0
2016-04-12T03:07:00Z,0000380,00000600,0000.88,0000.86,0000.19,0000.47,0000.31,0000.19,0000.31,0000.24,0000.11,30.5,05.7,0678.4,35.0
2016-04-12T03:08:00Z,0000380,00000600,0001.51,0001.46,0000.44,0000.32,0000.17,0000.47,0000.07,0000.03,-000.00,30.5,05.7,0678.4,35.0
2016-04-12T03:09:00Z,0000380,00000600,0001.41,0001.20,0000.12,0000.60,0000.36,-000.27,0000.27,0000.14,0000.14,30.5,05.7,0678.3,35.0
2016-04-12T03:10:00Z,0000380,00000600,0002.18,0000.39,0000.97,0000.68,-000.09,0000.32,-000.03,-000.06,-000.17,30.5,05.7,0678.4,35.0
2016-04-12T03:11:00Z,0000380,00000600,0002.39,0000.98,0000.45,0000.65,-000.03,0000.44,0000.14,0000.23,0000.46,30.5,05.7,0678.5,35.0
2016-04-12T03:12:00Z,0000380,00000600,0001.94,0001.31,0000.44,0000.51,0000.00,0000.19,0000.17,0000.32,0000.06,30.5,05.7,0678.3,35.0